Weather History for Ireland West Airport Knock, Ireland

Change the Weather History Date:

Monday, August 12, 2013

  Actual Average Record
Temperature  
Mean Temperature 55 °F -  
Max Temperature 61 °F - - ()
Min Temperature 49 °F - - ()
Degree Days  
Heating Degree Days 10    
Growing Degree Days 5 (Base 50)    
Moisture  
Dew Point 48 °F    
Average Humidity 77    
Maximum Humidity 100    
Minimum Humidity 52    
Precipitation  
Precipitation 0.03 in - - ()
Sea Level Pressure  
Sea Level Pressure 30.10 in    
Wind  
Wind Speed 11 mph ()    
Max Wind Speed 18 mph    
Max Gust Speed -    
Visibility 6.6 miles    
Events Rain    
T = Trace of Precipitation, MM = Missing Value Source: Averaged Metar Reports

Daily Weather History Graph

Daily Weather History Graph

Search for Another Location

Airport:

Trip Planner

Search our weather history database for the weather conditions in past years. The results will help you decide how hot, cold, wet, or windy it might be!

Date:

Astronomy

Aug. 12, 2013 Rise Set
Actual Time 6:08 AM IST 9:11 PM IST
Civil Twilight 5:27 AM IST 9:51 PM IST
Nautical Twilight 4:32 AM IST 10:46 PM IST
Astronomical Twilight 3:18 AM IST 11:57 PM IST
Moon 12:46 PM IST (8/12) 10:50 PM IST (8/12)
Length of Visible Light 16h 24m
Length of Day
15h 02m
Waxing Crescent, 29% of the Moon is Illuminated
Aug 12
Waxing Crescent
Aug 14
First Quarter
Aug 21
Full
Aug 28
Last Quarter
Sep 5
New

Hourly Weather History & Observations

Time (IST) Temp. Dew Point Humidity Pressure Visibility Wind Dir Wind Speed Gust Speed Precip Events Conditions
1:00 AM 51 °F 50 °F 93% 30.06 in - WNW 11.2 mph - -  
6:00 AM 51.8 °F 50.0 °F 94% 30.04 in 6.2 mi West 11.5 mph - N/A   Mostly Cloudy
6:30 AM 51.8 °F 50.0 °F 94% 30.04 in 6.2 mi WNW 8.1 mph - N/A Rain Light Rain Showers
7:00 AM 51 °F 50 °F 94% 30.08 in 19 mi WNW 6.7 mph - - Rain Light Rain Showers
7:00 AM 50.0 °F 50.0 °F 100% 30.06 in 6.2 mi WNW 6.9 mph - N/A   Mostly Cloudy
7:30 AM 51.8 °F 50.0 °F 94% 30.06 in 6.2 mi WNW 9.2 mph - N/A   Mostly Cloudy
8:00 AM 53.6 °F 50.0 °F 88% 30.06 in 6.2 mi WNW 11.5 mph - N/A   Mostly Cloudy
8:30 AM 53.6 °F 50.0 °F 88% 30.06 in 5.0 mi West 10.4 mph - N/A   Mostly Cloudy
9:00 AM 51.8 °F 50.0 °F 94% 30.09 in 6.2 mi WNW 13.8 mph - N/A Rain Light Rain Showers
9:30 AM 53.6 °F 50.0 °F 88% 30.09 in 6.2 mi WNW 10.4 mph - N/A   Mostly Cloudy
10:00 AM 53.6 °F 50.0 °F 88% 30.09 in 6.2 mi WNW 10.4 mph - N/A Rain Light Rain Showers
10:30 AM 53.6 °F 50.0 °F 88% 30.09 in 6.2 mi WNW 13.8 mph - N/A   Mostly Cloudy
11:00 AM 55.4 °F 50.0 °F 82% 30.09 in 6.2 mi WNW 12.7 mph - N/A Rain Light Rain Showers
11:30 AM 51.8 °F 51.8 °F 100% 30.12 in 6.2 mi NW 13.8 mph - N/A Rain Light Rain Showers
12:00 PM 53.6 °F 51.8 °F 94% 30.12 in 6.2 mi WNW 11.5 mph - N/A   Mostly Cloudy
12:30 PM 55.4 °F 48.2 °F 77% 30.12 in 6.2 mi WNW 13.8 mph - N/A   Scattered Clouds
1:00 PM 58 °F 45 °F 53% 30.14 in 28 mi WNW 17.9 mph - - Rain Light Rain Showers
1:00 PM 59.0 °F 44.6 °F 59% 30.12 in 6.2 mi WNW 17.3 mph - N/A   Scattered Clouds
1:30 PM 59.0 °F 46.4 °F 63% 30.12 in 6.2 mi WNW 16.1 mph - N/A   Scattered Clouds
2:00 PM 59.0 °F 46.4 °F 63% 30.12 in 6.2 mi NW 13.8 mph - N/A   Scattered Clouds
2:30 PM 60.8 °F 46.4 °F 59% 30.12 in 6.2 mi NW 15.0 mph - N/A   Scattered Clouds
3:00 PM 60.8 °F 42.8 °F 52% 30.12 in 6.2 mi WNW 17.3 mph - N/A   Scattered Clouds
3:30 PM 59.0 °F 42.8 °F 55% 30.12 in 6.2 mi WNW 15.0 mph - N/A   Mostly Cloudy
4:00 PM 59.0 °F 42.8 °F 55% 30.12 in 6.2 mi WNW 13.8 mph - N/A   Mostly Cloudy
4:30 PM 59.0 °F 44.6 °F 59% 30.12 in 6.2 mi WNW 15.0 mph - N/A   Mostly Cloudy
5:00 PM 57.2 °F 44.6 °F 63% 30.12 in 6.2 mi West 15.0 mph - N/A   Mostly Cloudy
5:30 PM 57.2 °F 48.2 °F 72% 30.12 in 6.2 mi West 16.1 mph - N/A   Mostly Cloudy
6:00 PM 57.2 °F 48.2 °F 72% 30.12 in 6.2 mi West 12.7 mph - N/A   Mostly Cloudy
6:30 PM 57.2 °F 48.2 °F 72% 30.12 in 6.2 mi West 15.0 mph - N/A   Mostly Cloudy
7:00 PM 56 °F 48 °F 67% 30.15 in 25 mi West 15.7 mph - -   Mostly Cloudy
7:00 PM 57.2 °F 48.2 °F 72% 30.12 in 6.2 mi West 15.0 mph - N/A   Mostly Cloudy